Stündliche Wetter Abdrahmanovo

Heute, 22 Juni, Dienstag

Zeit Temperatur Niederschläge Wind Luftdruck Luftfeuchtigkeit
00:00 +17°C° 0.2 mm 2 m/S 745 mmHg 85%
01:00 +17°C° 0.2 mm 2 m/S 745 mmHg 88%
02:00 +18°C° 0.1 mm 1 m/S 745 mmHg 89%
03:00 +18°C° 0.1 mm 1 m/S 745 mmHg 90%
04:00 +18°C° 0.1 mm 1 m/S 745 mmHg 91%
05:00 +19°C° 0 mm 1 m/S 746 mmHg 88%
06:00 +21°C° 0 mm 1 m/S 746 mmHg 86%
07:00 +22°C° 0 mm 1 m/S 746 mmHg 83%
08:00 +24°C° 0 mm 1 m/S 746 mmHg 77%
09:00 +25°C° 0 mm 2 m/S 746 mmHg 71%
10:00 +27°C° 0 mm 2 m/S 746 mmHg 66%
11:00 +28°C° 0 mm 2 m/S 746 mmHg 61%
12:00 +29°C° 0 mm 3 m/S 746 mmHg 56%
13:00 +30°C° 0 mm 3 m/S 746 mmHg 51%
14:00 +30°C° 0 mm 3 m/S 746 mmHg 51%
15:00 +30°C° 0 mm 4 m/S 746 mmHg 51%
16:00 +30°C° 0 mm 4 m/S 745 mmHg 52%
17:00 +28°C° 0.5 mm 3 m/S 745 mmHg 61%
18:00 +26°C° 0.5 mm 3 m/S 745 mmHg 69%
19:00 +25°C° 0.5 mm 2 m/S 745 mmHg 78%
20:00 +24°C° 0.3 mm 2 m/S 745 mmHg 80%
21:00 +23°C° 0.3 mm 1 m/S 745 mmHg 81%
22:00 +22°C° 0.3 mm 1 m/S 745 mmHg 83%
23:00 +22°C° 0.1 mm 1 m/S 744 mmHg 84%

Morgen, 23 Juni, Mittwoch

Zeit Temperatur Niederschläge Wind Luftdruck Luftfeuchtigkeit
00:00 +20°C° 0.1 mm 2 m/S 744 mmHg 85%
01:00 +20°C° 0.1 mm 3 m/S 744 mmHg 87%
02:00 +20°C° 0.1 mm 3 m/S 744 mmHg 88%
03:00 +20°C° 0.1 mm 2 m/S 744 mmHg 89%
04:00 +20°C° 0.1 mm 2 m/S 744 mmHg 90%
05:00 +21°C° 0 mm 2 m/S 744 mmHg 87%
06:00 +23°C° 0 mm 2 m/S 744 mmHg 84%
07:00 +24°C° 0 mm 3 m/S 744 mmHg 81%
08:00 +25°C° 0 mm 3 m/S 744 mmHg 75%
09:00 +27°C° 0 mm 3 m/S 744 mmHg 69%
10:00 +28°C° 0 mm 3 m/S 744 mmHg 63%
11:00 +29°C° 0.1 mm 4 m/S 744 mmHg 59%
12:00 +30°C° 0.1 mm 4 m/S 743 mmHg 56%
13:00 +30°C° 0.1 mm 5 m/S 743 mmHg 52%
14:00 +30°C° 0.3 mm 5 m/S 743 mmHg 57%
15:00 +29°C° 0.3 mm 5 m/S 743 mmHg 62%
16:00 +28°C° 0.3 mm 5 m/S 743 mmHg 67%
17:00 +27°C° 0.8 mm 4 m/S 743 mmHg 73%
18:00 +25°C° 0.8 mm 3 m/S 743 mmHg 78%
19:00 +24°C° 0.8 mm 3 m/S 743 mmHg 83%
20:00 +22°C° 0.4 mm 3 m/S 743 mmHg 86%
21:00 +20°C° 0.4 mm 3 m/S 743 mmHg 90%
22:00 +19°C° 0.4 mm 2 m/S 744 mmHg 93%
23:00 +18°C° 0 mm 2 m/S 744 mmHg 93%

übermorgen, 24 Juni, Donnerstag

Zeit Temperatur Niederschläge Wind Luftdruck Luftfeuchtigkeit
00:00 +18°C° 0 mm 2 m/S 744 mmHg 92%
01:00 +17°C° 0 mm 2 m/S 744 mmHg 92%
02:00 +17°C° 0 mm 2 m/S 744 mmHg 91%
03:00 +16°C° 0 mm 2 m/S 744 mmHg 90%
04:00 +16°C° 0 mm 2 m/S 744 mmHg 89%
05:00 +17°C° 0 mm 2 m/S 744 mmHg 84%
06:00 +18°C° 0 mm 2 m/S 744 mmHg 79%
07:00 +19°C° 0 mm 2 m/S 744 mmHg 73%
08:00 +20°C° 0 mm 2 m/S 744 mmHg 66%
09:00 +21°C° 0 mm 2 m/S 744 mmHg 59%
10:00 +24°C° 0 mm 2 m/S 744 mmHg 52%
11:00 +25°C° 0 mm 2 m/S 744 mmHg 51%
12:00 +26°C° 0 mm 2 m/S 744 mmHg 49%
13:00 +26°C° 0 mm 2 m/S 744 mmHg 48%
14:00 +27°C° 0 mm 2 m/S 744 mmHg 49%
15:00 +27°C° 0 mm 2 m/S 744 mmHg 50%
16:00 +28°C° 0 mm 2 m/S 744 mmHg 51%
17:00 +27°C° 0 mm 2 m/S 743 mmHg 56%
18:00 +26°C° 0 mm 2 m/S 743 mmHg 61%
19:00 +26°C° 0 mm 2 m/S 742 mmHg 67%
20:00 +24°C° 1.1 mm 2 m/S 743 mmHg 73%
21:00 +23°C° 1.1 mm 1 m/S 743 mmHg 79%
22:00 +21°C° 1.1 mm 1 m/S 743 mmHg 86%
23:00 +20°C° 0.6 mm 2 m/S 742 mmHg 87%

25 Juni, Freitag

Zeit Temperatur Niederschläge Wind Luftdruck Luftfeuchtigkeit
00:00 +19°C° 0.6 mm 2 m/S 742 mmHg 89%
01:00 +19°C° 0.6 mm 2 m/S 742 mmHg 91%
02:00 +19°C° 0.7 mm 2 m/S 742 mmHg 92%
03:00 +19°C° 0.7 mm 2 m/S 741 mmHg 93%
04:00 +20°C° 0.7 mm 1 m/S 741 mmHg 95%
05:00 +20°C° 0.1 mm 1 m/S 741 mmHg 92%
06:00 +21°C° 0.1 mm 1 m/S 741 mmHg 90%
07:00 +20°C° 0.1 mm 0 m/S 741 mmHg 88%
08:00 +24°C° 0 mm 1 m/S 741 mmHg 82%
09:00 +25°C° 0 mm 1 m/S 741 mmHg 75%
10:00 +27°C° 0 mm 2 m/S 741 mmHg 69%
11:00 +28°C° 0 mm 2 m/S 741 mmHg 65%
12:00 +29°C° 0 mm 2 m/S 741 mmHg 61%
13:00 +30°C° 0 mm 2 m/S 741 mmHg 58%
14:00 +30°C° 0 mm 3 m/S 740 mmHg 57%
15:00 +30°C° 0 mm 4 m/S 740 mmHg 56%
16:00 +32°C° 0 mm 4 m/S 740 mmHg 55%
17:00 +30°C° 0.6 mm 3 m/S 740 mmHg 63%
18:00 +29°C° 0.6 mm 3 m/S 740 mmHg 70%
19:00 +28°C° 0.6 mm 2 m/S 739 mmHg 77%
20:00 +26°C° 0.7 mm 2 m/S 739 mmHg 80%
21:00 +25°C° 0.7 mm 3 m/S 739 mmHg 83%
22:00 +22°C° 0.7 mm 3 m/S 739 mmHg 86%
23:00 +21°C° 0.2 mm 3 m/S 739 mmHg 83%

26 Juni, Samstag

Zeit Temperatur Niederschläge Wind Luftdruck Luftfeuchtigkeit
00:00 +21°C° 0.2 mm 2 m/S 739 mmHg 81%
01:00 +21°C° 0.2 mm 1 m/S 739 mmHg 79%
02:00 +21°C° 0.3 mm 1 m/S 738 mmHg 82%
03:00 +20°C° 0.3 mm 1 m/S 738 mmHg 84%
04:00 +20°C° 0.3 mm 1 m/S 738 mmHg 87%
05:00 +21°C° 0 mm 1 m/S 739 mmHg 85%
06:00 +22°C° 0 mm 1 m/S 739 mmHg 83%
07:00 +24°C° 0 mm 1 m/S 739 mmHg 80%
08:00 +25°C° 0 mm 1 m/S 739 mmHg 76%
09:00 +26°C° 0 mm 1 m/S 739 mmHg 71%
10:00 +28°C° 0 mm 1 m/S 739 mmHg 67%
11:00 +29°C° 0.1 mm 2 m/S 738 mmHg 64%
12:00 +30°C° 0.1 mm 2 m/S 738 mmHg 60%
13:00 +31°C° 0.1 mm 3 m/S 738 mmHg 57%
14:00 +31°C° 0.8 mm 3 m/S 738 mmHg 58%
15:00 +31°C° 0.8 mm 3 m/S 738 mmHg 58%
16:00 +31°C° 0.8 mm 3 m/S 738 mmHg 58%
17:00 +29°C° 0.4 mm 3 m/S 738 mmHg 65%
18:00 +28°C° 0.4 mm 3 m/S 737 mmHg 72%
19:00 +27°C° 0.4 mm 3 m/S 737 mmHg 79%
20:00 +26°C° 0 mm 2 m/S 737 mmHg 81%
21:00 +24°C° 0 mm 2 m/S 737 mmHg 84%
22:00 +23°C° 0 mm 1 m/S 737 mmHg 87%
23:00 +23°C° 0 mm 1 m/S 737 mmHg 87%

27 Juni, Sonntag

Zeit Temperatur Niederschläge Wind Luftdruck Luftfeuchtigkeit
00:00 +23°C° 0 mm 1 m/S 737 mmHg 88%
01:00 +22°C° 0 mm 1 m/S 737 mmHg 88%
02:00 +22°C° 0 mm 1 m/S 736 mmHg 89%
03:00 +22°C° 0 mm 1 m/S 736 mmHg 90%
04:00 +22°C° 0 mm 1 m/S 736 mmHg 90%
05:00 +23°C° 0 mm 1 m/S 736 mmHg 88%
06:00 +24°C° 0 mm 1 m/S 736 mmHg 85%
07:00 +25°C° 0 mm 2 m/S 736 mmHg 82%
08:00 +26°C° 0.4 mm 2 m/S 736 mmHg 78%
09:00 +27°C° 0.4 mm 2 m/S 736 mmHg 73%
10:00 +28°C° 0.4 mm 2 m/S 736 mmHg 68%
11:00 +29°C° 0.1 mm 3 m/S 736 mmHg 63%
12:00 +30°C° 0.1 mm 3 m/S 736 mmHg 57%
13:00 +32°C° 0.1 mm 4 m/S 736 mmHg 52%
14:00 +32°C° 0 mm 4 m/S 736 mmHg 54%
15:00 +32°C° 0 mm 4 m/S 735 mmHg 55%
16:00 +30°C° 0 mm 5 m/S 735 mmHg 57%
17:00 +28°C° 1.6 mm 4 m/S 735 mmHg 66%
18:00 +26°C° 1.6 mm 4 m/S 735 mmHg 75%
19:00 +23°C° 1.6 mm 4 m/S 735 mmHg 84%
20:00 +22°C° 0.1 mm 4 m/S 735 mmHg 87%
21:00 +22°C° 0.1 mm 3 m/S 735 mmHg 90%
22:00 +21°C° 0.1 mm 3 m/S 735 mmHg 93%
23:00 +20°C° 0 mm 3 m/S 735 mmHg 94%
Mehr zeigen

Wir brauchen deine Erlaubnis

Meteoprog und unser Service Anbieter werden persönliche Daten aufbewahren, so wie Cookies, Geräte Bezeichnung oder ähnliche Technologien von deinem Gerät und Prozess, so wie Persönliche Daten Inhalte und Werbungen, genauso wie social Media und den Verkehr zu analysieren.

  • Aufbewahrung und/oder Zugang zu deiner Geräte Informationen.

    Cookies, Geräte Bezeichnung oder andere Informationen, können aufbewahrt oder Zugang zu deinem Gerät erhalten, für den Grund, der oben angegeben wird.

  • Personalisierte Werbung und Inhalte, Messungen, Einblick in das Publikum und Produkt Entwicklung.

    Werbungen und Inhalte können personalisiert werden, basierend auf ein Profil. Mehr Daten können besser personalisierte Werbungen und Inhalte hinzufügen. Werbung und Inhalte können gezeigt und gemessen werden. Einblicke über das Publikum, welche die Werbung gesehen haben und den Inhalt, können abgeleitet werden. So wie Daten können genutzt werden, um es zu verbessern oder die Benutzer Erfahrung zu verbessern das System und die Software.

Wenn du “Ich stimme zu” klickst, erlaubst du uns, die Cookies zu benutzen die Geräte Bezeichnung, den Web oder ähnliche Technologien zu benutzen. Deine Settings, können in deinem Gerät bei deinem Browser geändert werden.

Für den bestimmten Zweck, berechtigten Interessen beruhen darauf, mehr als auf den Inhalt. Du kannst mehr darüber in unseren Privaten und Cookie Politik lesen.